SL-14 DEB, 45325

Orbit data source: Space-Track

SL-14 DEB, 45325 is space debris in LEO originally from a launch on Thu, 15 Aug 1991 UTC launched from the Plesetsk Missile And Space Complex (PKMTR). Debris objects in space refer to the collection of defunct objects orbiting the Earth. Examples of debris include non-operational satellites, rocket bodies, and fragments generated from explosions, collisions, or faulty payload assembly.

Loading next visibility...
Identifier
45325, 1991-056BP
Orbit
LEO
Country
Flag of CISCIS
Related business
Manufacturer
Unknown
Mission
Spacecraft
Bus & Motor
Unknown
Mass
Unknown
Launch date (UTC)
1991-08-15 (35 years ago)
Launch vehicle
Unknown
Launch site
Plesetsk Missile And Space Complex (PKMTR)
Object type
Payload
Rocket body
Debris
Shape & HBR
Unknown shape, 0.1 m
Radar Cross Section
Medium (>0.1 m² and <1 m²)

Expand to show TLE details & history
Last TLE update: 9 hours ago

TLE from 9 hours ago
0 SL-14 DEB
1 45325U 91056BP  26254.60086612  .00033740  00000-0  65819-2 0  9996
2 45325  82.5169 214.9995 0079089 118.0275 242.8957 14.60803003331074
Epoch: 2026-09-11T14:25Z
TLE epoch observation values (Epoch: 2026-09-11T14:25:14.832Z)
Latitude
-0.00003°
Longitude
8.06581°
Altitude
719.416 km
Speed
7.482 km/s
True Right ascension
14h 19m 59s
True Declination
0° 00' 00"
Sunlit
Object was in daylight at epoch
Visualization orbit readout
Latitude
Unknown
Longitude
Unknown
Altitude
Unknown
Speed
Unknown
Apparent Right ascension
Unknown
Apparent Declination
Unknown
Sunlit
N/A
Visualization observer readout
Local Sidereal Time
15:39:27
Azimuth
Unknown
Elevation
Unknown
Doppler factor
Unknown
Orbital elements
Apogee altitude
743.513 km
Perigee altitude
631.748 km
Semi-major axis
7,065.768 km
Eccentricity
0.00791
Inclination
82.5169°
RAAN
214.9995°
Arg. of periapsis
118.0275°
True anomaly
242.09258°
Mean anomaly
242.8957°
Eccentric anomaly
242.49378°
Mean motion
3.6543 °/min
Orbital period
98.51 mins
BSTAR
0.0065819
Loading maneuver chart data...
Computing Atmospheric mass density...
Loading historical data...
Loading historical data...
Loading historical data...
Loading historical data...
Loading historical data...
Loading historical data...
Loading historical data...

Documentation

Showing up to 5 results
|